CZ-6A DEB, 55871

Orbit data source: Space-Track

CZ-6A DEB, 55871 is space debris in SSO originally from a launch on Fri, 11 Nov 2022 UTC launched from the Taiyaun Space Center, China (TSC). Debris objects in space refer to the collection of defunct objects orbiting the Earth. Examples of debris include non-operational satellites, rocket bodies, and fragments generated from explosions, collisions, or faulty payload assembly.

Loading next visibility...
Identifier
55871, 2022-151ZT
Orbit
SSO
Country
Flag of CNCN / PRC
Related business
Manufacturer
SAST
Mission
Spacecraft
Bus & Motor
Unknown
Mass
Unknown
Launch date (UTC)
2022-11-11 (4 years ago)
Launch vehicle
Unknown
Launch site
Taiyaun Space Center, China (TSC)
Object type
Payload
Rocket body
Debris
Shape & HBR
Unknown shape, 0.1 m
Radar Cross Section
Medium (>0.1 m² and <1 m²)

Expand to show TLE details & history
Last TLE update: 1 day ago

TLE from 1 day ago
0 CZ-6A DEB
1 55871U 22151ZT  26235.02191460  .00001663  00000-0  75635-3 0  9993
2 55871  98.7983 249.8022 0025378  91.3209 269.0876 14.22948182183403
Epoch: 2026-08-23T00:31Z
TLE epoch observation values (Epoch: 2026-08-23T00:31:33.421Z)
Latitude
-0.00006°
Longitude
-89.41099°
Altitude
818.652 km
Speed
7.444 km/s
True Right ascension
16h 39m 12s
True Declination
0° 00' 00"
Sunlit
Object was in daylight at epoch
Visualization orbit readout
Latitude
Unknown
Longitude
Unknown
Altitude
Unknown
Speed
Unknown
Apparent Right ascension
Unknown
Apparent Declination
Unknown
Sunlit
N/A
Visualization observer readout
Local Sidereal Time
17:50:12
Azimuth
Unknown
Elevation
Unknown
Doppler factor
Unknown
Orbital elements
Apogee altitude
830.807 km
Perigee altitude
794.31 km
Semi-major axis
7,190.695 km
Eccentricity
0.00254
Inclination
98.7983°
RAAN
249.8022°
Arg. of periapsis
91.3209°
True anomaly
268.79684°
Mean anomaly
269.0876°
Eccentric anomaly
268.94222°
Mean motion
3.55948 °/min
Orbital period
101.14 mins
BSTAR
0.00075635
Loading maneuver chart data...
Computing Atmospheric mass density...
Loading historical data...
Loading historical data...
Loading historical data...
Loading historical data...
Loading historical data...
Loading historical data...
Loading historical data...

Documentation

Showing up to 5 results
|